Lexington Weather

Lexington, Massachusetts, USA

36°F
1/28/2020 5:40am 
  • Lexington Conditions: Overcast
  • Temperature: 36.3°F / 2.4°CWarmer 0.3°F than last hour.
  • Dew Point: 29.8°FIncreased 0.3°Fsince last hour.
  • Relative Humidity: 77
  • Wind: Wind from NW NW Calm, 10-min avg: 2 mph, gust: 5 mph
  • Barometer: 29.64 inRising 0.02  inHg/hr Rising Slowly
  • Visibility: 10 miles
  • Rain Today: 0.00 in
  •   

Regional Weather Roundup
for Boston / Norton, MA

        
000
ASUS41 KBOX 280510
RWRBOX

REGIONAL WEATHER ROUNDUP
NATIONAL WEATHER SERVICE BOSTON/NORTON MA
1200 AM EST TUE JAN 28 2020

NOTE:  "FAIR" INDICATES FEW OR NO CLOUDS BELOW 12,000 FEET WITH NO 
SIGNIFICANT WEATHER AND/OR OBSTRUCTIONS TO VISIBILITY.

MAZALL-280600-
EASTERN MASSACHUSETTS
  
CITY           SKY/WX    TMP DP  RH WIND       PRES   REMARKS
BOSTON         MOCLDY    42  27  55 W12       29.63S                  
BEVERLY        CLOUDY    38  28  67 W3        29.62R                  
LAWRENCE       CLOUDY    37  28  70 W6        29.64R                  
BEDFORD        CLOUDY    38  27  64 W7        29.63R                  
BLUE HILL        N/A     35  27  72 W10       29.60S WCI  27          
NORWOOD        CLOUDY    41  27  57 W7        29.64R                  
MARSHFIELD     CLOUDY    39  28  65 W7        29.62S                  
PLYMOUTH       CLOUDY    37  27  67 W7        29.63R WCI  32          
TAUNTON        MOCLDY    36  26  67 W3        29.64S                  
NEW BEDFORD    CLOUDY    38  27  64 W9        29.64R WCI  31          
$$

MAZALL-280600-
CAPE COD AND THE ISLANDS
  
CITY           SKY/WX    TMP DP  RH WIND       PRES   REMARKS
FALMOUTH       CLOUDY    37  28  70 NW7       29.63R                  
HYANNIS        CLOUDY    40  27  59 W10       29.61S                  
CHATHAM        CLOUDY    39  29  67 NW9       29.62S                  
PROVINCETOWN   CLOUDY    40  32  73 NW16      29.62S WCI  31          
NANTUCKET      CLOUDY    39  30  70 W7        29.63S                  
MARTHAS VNYRD  CLOUDY    40  29  64 NW10      29.64R                  
$$
 
MAZALL-280600-
CENTRAL AND WESTERN MASSACHUSETTS
  
CITY           SKY/WX    TMP DP  RH WIND       PRES   REMARKS
WORCESTER      CLOUDY    34  25  69 W13       29.62R WCI  25          
FITCHBURG      CLOUDY    37  26  64 NW7       29.64R WCI  32          
ORANGE         CLOUDY    37  25  61 W3        29.66R                  
SPRINGFIELD    CLOUDY    35  26  69 W7        29.66R WCI  29          
WESTFIELD      CLOUDY    36  26  67 NW7       29.67R WCI  30          
NORTH ADAMS    CLOUDY    34  26  72 W8        29.67S WCI  27          
PITTSFIELD     CLOUDY    32  26  78 W9        29.65R WCI  24          
$$
 
RIZALL-280600-
RHODE ISLAND
  
CITY           SKY/WX    TMP DP  RH WIND       PRES   REMARKS
PROVIDENCE     CLOUDY    38  28  67 W7        29.66S                  
NEWPORT        CLOUDY    39  28  64 NW8       29.65R                  
BLOCK ISLAND   CLOUDY    39  27  62 NW8       29.68S                  
SMITHFIELD     CLOUDY    36  27  69 W7        29.64S WCI  30          
WESTERLY       CLOUDY    41  25  53 W3        29.68S                  
$$
 
CTZALL-280600-
CONNECTICUT
  
CITY           SKY/WX    TMP DP  RH WIND       PRES   REMARKS
BRADLEY INTL   MOCLDY    36  26  67 W8        29.68R WCI  30          
HARTFORD       CLOUDY    38  27  64 NW8       29.69S                  
BRIDGEPORT     CLOUDY    40  28  62 NW5       29.72R                  
DANBURY        CLOUDY    37  26  64 W5        29.72R                  
GROTON         CLOUDY    39  27  62 NW10      29.68S                  
NEW HAVEN      CLOUDY    41  31  67 NW6       29.71R                  
CHESTER        CLOUDY    39  27  60 VRB7G14   29.68S                  
MERIDEN        CLOUDY    39  26  59 VRB7      29.71R                  
WILLIMANTIC    CLOUDY    37  26  64 W6        29.68S                  
OXFORD         CLOUDY    35  29  78 NW5       29.70R WCI  31          
$$

MEZ002-015-021-024-NHZ003-005-008-011-012-014-VTZ005-008-280600-
NORTHERN NEW ENGLAND
  
CITY           SKY/WX    TMP DP  RH WIND       PRES   REMARKS
PORTLAND ME    CLOUDY    34  26  72 W3        29.59S                  
BANGOR ME      CLOUDY    33  27  78 NW5       29.57R WCI  29          
CONCORD NH     CLOUDY    36  26  67 W6        29.62R WCI  31          
MANCHESTER NH  CLOUDY    38  27  64 W7        29.61R                  
NASHUA NH      CLOUDY    37  29  72 W5        29.64R                  
PORTSMOUTH NH  CLOUDY    37  27  65 W7        29.59S WCI  32          
JAFFREY NH     CLOUDY    35  25  66 W3        29.62R                  
KEENE NH       CLOUDY    36  27  69 W5        29.65R                  
BURLINGTON VT  LGT SNOW  32  30  92 N10       29.69R FOG     WCI  24  
MT. WASHINGTON SNOW      10  10 100 NW49        N/A  VSB 1/16WCI -16  
$$

NYZ052-076-280600-
EASTERN NEW YORK
  
CITY           SKY/WX    TMP DP  RH WIND       PRES   REMARKS
ALBANY         CLOUDY    37  27  67 NW9       29.71R WCI  30          
NEW YORK CITY  CLOUDY    40  26  57 NW15      29.74S WCI  32          
$$
 
ANZALL-280600-
MARINE OBSERVATIONS
  
STATION/POSITION TIME  TEMP    WIND        PRES    VSBY  WAVE
                       AIR SEA DIR/SP/G                  HT/PER
                 (UTC) (F)     (DEG/KT/KT) (MB)    (MI)  (FT/S)
BOSTON BUOY      0450   41 43  290/ 16/ 17 1002.2S         2/10
BUZZARDS BAY     0400   40     300/ 17/ 19 1004.2S
NANTUCKET SOUND  0440                        N/A
MASS BAY-STELLWA 0404   40 40  320/ 14/ 16 1000.6R  1 7/8
ISLE OF SHOALS   0400   39     290/ 12/ 14 1001.9R
S OF BLOCK IS    0500      44                N/A           5/ 6
$$

......................KEY.........................
  SKY/WX - SKY CONDITION/PRESENT WEATHER
  TMP    - TEMPERATURE IN FAHRENHEIT
  DWPT   - DEWPOINT IN FAHRENHEIT
  RH     - RELATIVE HUMIDITY IN PERCENT
  WIND   - DIRECTION AND SPEED IN MPH
  PRES   - MEAN SEA LEVEL PRESSURE IN INCHES OF HG
  WCI    - WIND CHILL INDEX
  VSB    - VISIBILITY IN MILES
  HX     - HEAT INDEX
  TC     - TEMPERATURE IN CELSIUS
  VRB    - VARIABLE WIND DIRECTION
  N/A    - NOT AVAILABLE
  
      

Other recent Regional Weather Roundups

Tue Jan 28, 5:10am

Tue Jan 28, 5:00am

Tue Jan 28, 4:10am

Tue Jan 28, 4:00am

Tue Jan 28, 3:10am

Tue Jan 28, 3:01am

Tue Jan 28, 2:10am

Tue Jan 28, 2:00am

Tue Jan 28, 1:10am

Tue Jan 28, 1:00am

Tue Jan 28, 12:01am

Mon Jan 27, 11:10pm

Mon Jan 27, 11:00pm

Mon Jan 27, 10:10pm

Mon Jan 27, 10:00pm

Mon Jan 27, 9:10pm

Mon Jan 27, 9:00pm

Mon Jan 27, 8:10pm

Mon Jan 27, 8:01pm

Mon Jan 27, 7:10pm

Mon Jan 27, 7:00pm

Mon Jan 27, 6:10pm

Mon Jan 27, 6:00pm

Mon Jan 27, 5:10pm

Mon Jan 27, 5:00pm

Mon Jan 27, 4:10pm

Mon Jan 27, 4:00pm

Mon Jan 27, 3:10pm

Mon Jan 27, 3:00pm

Mon Jan 27, 2:10pm

Mon Jan 27, 2:00pm

Mon Jan 27, 1:10pm

Mon Jan 27, 1:00pm

Mon Jan 27, 12:10pm

Mon Jan 27, 12:00pm

Mon Jan 27, 11:10am

Mon Jan 27, 11:01am

Mon Jan 27, 10:10am

Mon Jan 27, 10:00am

Mon Jan 27, 9:10am

Mon Jan 27, 9:00am

Mon Jan 27, 8:10am

Mon Jan 27, 8:00am

Mon Jan 27, 7:10am

Mon Jan 27, 7:00am

Mon Jan 27, 6:10am

Mon Jan 27, 6:00am

Mon Jan 27, 5:10am

Mon Jan 27, 5:00am

Mon Jan 27, 4:10am

Mon Jan 27, 4:01am

Mon Jan 27, 3:10am

Mon Jan 27, 3:00am

Mon Jan 27, 2:10am

Mon Jan 27, 2:00am

Mon Jan 27, 1:10am

Mon Jan 27, 1:00am

Mon Jan 27, 12:10am

Mon Jan 27, 12:00am

Sun Jan 26, 11:10pm

Sun Jan 26, 11:00pm

Sun Jan 26, 10:10pm

Sun Jan 26, 10:00pm

Sun Jan 26, 9:10pm

Sun Jan 26, 9:01pm

Sun Jan 26, 8:10pm

Sun Jan 26, 8:00pm

Sun Jan 26, 7:10pm

Sun Jan 26, 7:00pm

Sun Jan 26, 6:10pm

Sun Jan 26, 6:01pm

Sun Jan 26, 5:10pm

Sun Jan 26, 5:01pm

Sun Jan 26, 4:10pm

Sun Jan 26, 4:00pm

Sun Jan 26, 3:10pm

Sun Jan 26, 3:01pm

Sun Jan 26, 2:10pm

Sun Jan 26, 2:01pm

Sun Jan 26, 1:10pm

Sun Jan 26, 1:00pm

Sun Jan 26, 12:10pm

Sun Jan 26, 12:00pm

Sun Jan 26, 11:10am

Sun Jan 26, 11:01am

Sun Jan 26, 10:10am

Sun Jan 26, 10:01am

Sun Jan 26, 9:10am

Sun Jan 26, 9:00am

Sun Jan 26, 8:10am

Sun Jan 26, 8:00am

Sun Jan 26, 7:10am

Sun Jan 26, 7:00am

Sun Jan 26, 6:10am

Sun Jan 26, 6:00am

Sun Jan 26, 5:10am

Sun Jan 26, 5:00am

Sun Jan 26, 4:10am

Sun Jan 26, 4:01am

Sun Jan 26, 3:10am

Sun Jan 26, 3:01am

Sun Jan 26, 2:10am

Sun Jan 26, 2:00am

Sun Jan 26, 1:10am

Sun Jan 26, 1:00am

Sun Jan 26, 12:10am

Sun Jan 26, 12:00am

Sat Jan 25, 11:10pm

Sat Jan 25, 11:00pm

Sat Jan 25, 10:10pm

Sat Jan 25, 10:01pm

Sat Jan 25, 9:10pm

Sat Jan 25, 9:01pm

Sat Jan 25, 8:10pm

Sat Jan 25, 8:01pm

Sat Jan 25, 7:10pm

Sat Jan 25, 7:01pm

Sat Jan 25, 6:10pm

Sat Jan 25, 6:01pm

Sat Jan 25, 5:10pm

Sat Jan 25, 5:01pm

Sat Jan 25, 4:10pm

Sat Jan 25, 4:00pm

Sat Jan 25, 3:10pm

Sat Jan 25, 3:01pm

Sat Jan 25, 2:10pm

Sat Jan 25, 2:00pm

Sat Jan 25, 1:10pm

Sat Jan 25, 1:00pm

Sat Jan 25, 12:10pm

Sat Jan 25, 12:00pm

Sat Jan 25, 11:10am

Sat Jan 25, 11:00am

Sat Jan 25, 10:10am

Sat Jan 25, 10:00am

Sat Jan 25, 9:10am

Sat Jan 25, 9:00am

Sat Jan 25, 8:10am

Sat Jan 25, 8:01am

Sat Jan 25, 7:10am

Sat Jan 25, 7:00am

Sat Jan 25, 6:10am

Sat Jan 25, 6:00am

Meta data:

ID: 9ddac5f3-ba24-4d1a-b23f-a8b81be3ea09
Link: https://api.weather.gov/products/9ddac5f3-ba24-4d1a-b23f-a8b81be3ea09